TimeCDT,TemperatureF,Dew PointF,Humidity,Sea Level PressureIn,VisibilityMPH,Wind Direction,Wind SpeedMPH,Gust SpeedMPH,PrecipitationIn,Events,Conditions,WindDirDegrees,DateUTC
12:15 AM,37.4,26.6,65,30.17,10.0,Calm,Calm,-,N/A,,Overcast,0,2012-11-03 05:15:00
12:35 AM,37.4,26.6,65,30.17,10.0,Calm,Calm,-,N/A,,Overcast,0,2012-11-03 05:35:00
12:55 AM,37.4,26.6,65,30.17,10.0,Calm,Calm,-,N/A,,Overcast,0,2012-11-03 05:55:00
1:15 AM,37.4,26.6,65,30.18,10.0,Calm,Calm,-,N/A,,Overcast,0,2012-11-03 06:15:00
1:35 AM,37.4,26.6,65,30.17,10.0,Calm,Calm,-,N/A,,Overcast,0,2012-11-03 06:35:00
2:15 AM,37.4,26.6,65,30.16,10.0,Calm,Calm,-,N/A,,Overcast,0,2012-11-03 07:15:00
2:35 AM,37.4,26.6,65,30.16,10.0,Calm,Calm,-,N/A,,Overcast,0,2012-11-03 07:35:00
2:56 AM,37.4,28.4,70,30.16,10.0,Calm,Calm,-,N/A,,Overcast,0,2012-11-03 07:56:00
3:15 AM,35.6,28.4,75,30.16,10.0,Calm,Calm,-,N/A,,Overcast,0,2012-11-03 08:15:00
3:35 AM,37.4,28.4,70,30.17,10.0,Calm,Calm,-,N/A,,Overcast,0,2012-11-03 08:35:00
3:56 AM,35.6,28.4,75,30.17,10.0,Calm,Calm,-,N/A,,Overcast,0,2012-11-03 08:56:00
4:15 AM,35.6,28.4,75,30.17,10.0,Calm,Calm,-,N/A,,Overcast,0,2012-11-03 09:15:00
4:35 AM,35.6,28.4,75,30.17,10.0,Calm,Calm,-,N/A,,Overcast,0,2012-11-03 09:35:00
4:56 AM,35.6,28.4,75,30.18,10.0,Calm,Calm,-,N/A,,Overcast,0,2012-11-03 09:56:00
5:15 AM,35.6,28.4,75,30.18,10.0,Calm,Calm,-,N/A,,Overcast,0,2012-11-03 10:15:00
5:35 AM,35.6,30.2,81,30.19,2.0,Calm,Calm,-,N/A,Snow,Light Snow,0,2012-11-03 10:35:00
5:56 AM,33.8,28.4,81,30.19,10.0,Calm,Calm,-,N/A,,Overcast,0,2012-11-03 10:56:00
6:15 AM,35.6,30.2,81,30.19,10.0,Calm,Calm,-,N/A,,Overcast,0,2012-11-03 11:15:00
6:35 AM,35.6,30.2,81,30.18,10.0,Calm,Calm,-,N/A,,Overcast,0,2012-11-03 11:35:00
6:56 AM,35.6,30.2,81,30.19,10.0,Calm,Calm,-,N/A,,Overcast,0,2012-11-03 11:56:00
7:15 AM,35.6,30.2,81,30.19,10.0,Calm,Calm,-,N/A,,Overcast,0,2012-11-03 12:15:00
7:35 AM,35.6,30.2,81,30.18,10.0,Calm,Calm,-,N/A,,Overcast,0,2012-11-03 12:35:00
7:55 AM,35.6,30.2,81,30.18,10.0,Calm,Calm,-,N/A,,Overcast,0,2012-11-03 12:55:00
8:15 AM,35.6,30.2,81,30.19,10.0,Calm,Calm,-,N/A,,Overcast,0,2012-11-03 13:15:00
8:35 AM,35.6,30.2,81,30.19,10.0,Calm,Calm,-,N/A,,Overcast,0,2012-11-03 13:35:00
8:55 AM,35.6,30.2,81,30.20,10.0,Calm,Calm,-,N/A,,Overcast,0,2012-11-03 13:55:00
9:15 AM,35.6,30.2,81,30.20,10.0,Calm,Calm,-,N/A,,Overcast,0,2012-11-03 14:15:00
9:35 AM,35.6,30.2,81,30.20,10.0,East,4.6,-,N/A,,Overcast,100,2012-11-03 14:35:00
9:55 AM,37.4,30.2,75,30.21,10.0,East,3.5,-,N/A,,Overcast,100,2012-11-03 14:55:00
10:15 AM,37.4,30.2,75,30.21,10.0,East,3.5,-,N/A,,Overcast,90,2012-11-03 15:15:00
10:35 AM,37.4,30.2,75,30.22,10.0,East,3.5,-,N/A,,Overcast,100,2012-11-03 15:35:00
10:55 AM,37.4,30.2,75,30.22,10.0,East,3.5,-,N/A,,Overcast,90,2012-11-03 15:55:00
11:15 AM,37.4,28.4,70,30.22,10.0,ESE,4.6,-,N/A,,Overcast,110,2012-11-03 16:15:00
11:35 AM,37.4,30.2,75,30.22,10.0,ESE,5.8,-,N/A,,Overcast,110,2012-11-03 16:35:00
11:55 AM,37.4,30.2,75,30.22,10.0,SE,4.6,-,N/A,,Overcast,130,2012-11-03 16:55:00
12:15 PM,39.2,30.2,70,30.21,10.0,SE,5.8,-,N/A,,Overcast,140,2012-11-03 17:15:00
12:35 PM,39.2,30.2,70,30.21,10.0,SE,5.8,-,N/A,,Overcast,130,2012-11-03 17:35:00
12:55 PM,39.2,30.2,70,30.21,10.0,SE,4.6,-,N/A,,Overcast,140,2012-11-03 17:55:00
1:15 PM,39.2,28.4,65,30.20,10.0,SSE,4.6,-,N/A,,Overcast,160,2012-11-03 18:15:00
1:35 PM,39.2,28.4,65,30.20,10.0,South,3.5,-,N/A,,Overcast,170,2012-11-03 18:35:00
1:55 PM,39.2,28.4,65,30.20,10.0,SSE,4.6,-,N/A,,Overcast,150,2012-11-03 18:55:00
2:15 PM,41.0,28.4,61,30.20,10.0,South,5.8,-,N/A,,Overcast,170,2012-11-03 19:15:00
2:35 PM,41.0,28.4,61,30.20,10.0,SSE,4.6,-,N/A,,Overcast,150,2012-11-03 19:35:00
2:55 PM,41.0,28.4,61,30.20,10.0,SSE,3.5,-,N/A,,Overcast,160,2012-11-03 19:55:00
3:15 PM,42.8,28.4,57,30.19,10.0,SE,3.5,-,N/A,,Overcast,130,2012-11-03 20:15:00
3:35 PM,42.8,28.4,57,30.19,10.0,SE,4.6,-,N/A,,Overcast,140,2012-11-03 20:35:00
3:55 PM,42.8,28.4,57,30.19,10.0,SE,5.8,-,N/A,,Overcast,140,2012-11-03 20:55:00
4:15 PM,42.8,28.4,57,30.19,10.0,SE,5.8,-,N/A,,Overcast,130,2012-11-03 21:15:00
4:36 PM,42.8,28.4,57,30.19,10.0,SE,6.9,-,N/A,,Overcast,130,2012-11-03 21:36:00
4:55 PM,42.8,28.4,57,30.19,10.0,SE,4.6,-,N/A,,Overcast,130,2012-11-03 21:55:00
5:15 PM,42.8,28.4,57,30.18,10.0,ESE,5.8,-,N/A,,Overcast,110,2012-11-03 22:15:00
5:35 PM,42.8,28.4,57,30.18,10.0,SE,4.6,-,N/A,,Overcast,140,2012-11-03 22:35:00
5:55 PM,42.8,30.2,61,30.18,10.0,East,4.6,-,N/A,,Overcast,100,2012-11-03 22:55:00
6:15 PM,42.8,30.2,61,30.18,10.0,East,3.5,-,N/A,,Overcast,100,2012-11-03 23:15:00
6:35 PM,41.0,30.2,65,30.19,10.0,Calm,Calm,-,N/A,,Overcast,0,2012-11-03 23:35:00
6:55 PM,41.0,30.2,65,30.20,10.0,Calm,Calm,-,N/A,,Overcast,0,2012-11-03 23:55:00
7:15 PM,41.0,30.2,65,30.20,10.0,East,4.6,-,N/A,,Drizzle,100,2012-11-04 00:15:00
7:35 PM,39.2,32.0,75,30.20,10.0,East,3.5,-,N/A,,Light Drizzle,100,2012-11-04 00:35:00
8:15 PM,39.2,32.0,75,30.20,10.0,East,4.6,-,N/A,,Drizzle,100,2012-11-04 01:15:00
8:35 PM,39.2,33.8,81,30.20,10.0,East,4.6,-,N/A,Rain,Light Rain,100,2012-11-04 01:35:00
8:55 PM,39.2,33.8,81,30.20,10.0,East,4.6,-,N/A,Rain,Light Rain,80,2012-11-04 01:55:00
9:15 PM,39.2,33.8,81,30.20,10.0,East,4.6,-,N/A,,Light Drizzle,90,2012-11-04 02:15:00
9:35 PM,39.2,33.8,81,30.21,10.0,East,5.8,-,N/A,,Overcast,80,2012-11-04 02:35:00
9:55 PM,39.2,33.8,81,30.21,10.0,East,5.8,-,N/A,,Overcast,100,2012-11-04 02:55:00
10:15 PM,39.2,33.8,81,30.21,10.0,East,5.8,-,N/A,,Overcast,90,2012-11-04 03:15:00
10:35 PM,37.4,33.8,87,30.21,10.0,East,5.8,-,N/A,,Overcast,90,2012-11-04 03:35:00
10:55 PM,37.4,33.8,87,30.21,10.0,East,6.9,-,N/A,,Overcast,80,2012-11-04 03:55:00
11:15 PM,37.4,33.8,87,30.21,10.0,East,6.9,-,N/A,,Overcast,100,2012-11-04 04:15:00
11:35 PM,37.4,33.8,87,30.21,10.0,East,5.8,-,N/A,,Overcast,90,2012-11-04 04:35:00
11:55 PM,37.4,33.8,87,30.21,10.0,East,6.9,-,N/A,,Overcast,100,2012-11-04 04:55:00